Will Rogers World Airport Oklahoma City US
ICAO: KOKC
IATA: OKC
Category: Large
Scheduled Services: Yes

Elevation: 1295 ft
TransAlt. 18000 ft.

Airport Communications:
OKE CITY APP/DEP:120.45
ATIS:125.85
CLNC DEL:124.35
GND:121.9
ANG OPS COMD POST:22.56
ROGERS TWR:119.35

KOKC Zoom In..

Runways:

(A) RW 13 length 7800 ft width 150 ft
---- / hdg 130

(B) RW 17L length 9802 ft width 150 ft
ILS 110.90 / hdg 175

(C) RW 17R length 9800 ft width 150 ft
ILS 110.70 / hdg 175

(D) RW 18 length 3078 ft width 75 ft
---- / hdg 175

(E) RW 31 length 7800 ft width 150 ft
---- / hdg 310

(F) RW 35L length 9800 ft width 150 ft
ILS 110.70 / hdg 355

(G) RW 35R length 9802 ft width 150 ft
ILS 110.90 / hdg 355

(H) RW 36 length 3078 ft width 75 ft
---- / hdg 355

Location; KOKC
Day. 17 / Time. 06.52 Zulu
* Altimeter: 30.01
* Temperature: 27° c. 80.6°f.
* Wind from: 130° Speed 05 kn.
Dewpoint: 23° c.
Visibility: 10 Statute Miles.
Clouds: Few 1000 ft.
Clouds: Scattered 15000 ft.
Clouds: Scattered 25000 ft.

KOKC 170652Z 13005KT 10SM FEW100 SCT150 SCT250 27/23 A3001 RMK AO2 SLP144 T02670228


Wind From 130°
Speed 05 kn.

 
 
jpsmedia.com for Web Design worldairports.se 2018   terms of use